{"data":{"norad_id":62971,"intl_designator":"2025-030A","name":"HULIANWANG DIGUI-11","alt_names":[],"object_type":"PAYLOAD","status":"ACTIVE","operator":null,"country":"PRC","launch_date":"2025-02-11","launch_site_code":"WSC","launch_vehicle":null,"mission":null,"orbit_class":"UNKNOWN","rcs_meters":null,"size_class":null,"mass_kg":null,"dimensions":null,"purposes":[],"wikipedia_slug":null,"has_3d_model":false,"image_url":null,"decayed_at":null,"tle_current":{"epoch":"2026-05-25T03:43:30.779904Z","epoch_age_seconds":68516,"freshness":"FRESH","line1":"1 62971U 25030A   26145.15521736 -.00000082  00000+0  90082-4 0  9996","line2":"2 62971  50.0018 318.4319 0001327  97.5647 262.5376 13.29321237 62799","mean_motion":13.293212369999999,"eccentricity":0.0001327,"inclination_deg":50.0018,"raan_deg":318.4319,"arg_perigee_deg":97.5647,"mean_anomaly_deg":262.5376,"bstar":9.0082e-5,"rev_number":6279,"period_min":108.32596064212,"perigee_km":1148.3256584072,"apogee_km":1150.3234467032,"semimajor_km":7527.4615525552,"source":"CELESTRAK","updated_at":"2026-05-25T13:38:03.394709Z"}}}